User: anonymous   Login
Location: Unspecified
(0.0000°N, 0.0000°E)
Time: 04:33:14
(UTC+00:00)
Language:

ONEWEB-0263 - Orbit

View from above orbital plane
View from above orbital plane
View from above satellite
View from above satellite

Ground track
Ground track

The orbit is defined by the following mean orbital elements,

1 48981U          26145.49999981 +.00000000 +00000-0 -10717-3 0 00009
2 48981  87.9106 233.2855 0001713  95.1534 264.9793 13.16593238    01
Epoch (UTC): 25 May 2026 11:59:59
Eccentricity: 0.0001713
inclination: 87.9106°
perigee height: 1196 km
apogee height: 1199 km
right ascension of ascending node: 233.2855°
argument of perigee: 95.1534°
revolutions per day: 13.16593238
mean anomaly at epoch: 264.9793°

The dashed part of the orbit path shows where the satellite is in the earth's shadow,  

DLR